Theta_e
308 307 307 307 306 305 305 305 302 299 301 303 305 308 307 308 309 310 308 312 315 315 315 315 315 315 314 313 314 315 315 316 318 318 319 320 321 322
306 305 305 305 305 305 305 305 304 306 302 304 303 304 305 307 308 308 307 311 311 311 310 311 311 311 311 311 312 313 314 315 315 316 317 318 319 320
301 302 303 304 303 304 305 304 305 307 303 304 303 304 302 302 305 304 304 305 304 308 309 309 309 309 310 310 311 312 311 313 314 315 315 316 317 319
299 300 302 307 301 301 301 300 301 304 302 299 299 301 302 303 302 299 302 304 303 306 308 308 308 308 308 309 309 308 309 310 311 312 313 313 316 317
299 300 302 301 298 298 298 298 299 301 300 298 299 300 301 298 296 297 297 298 301 305 305 306 306 307 308 306 307 307 307 307 307 308 310 311 312 314
301 303 304 301 298 296 297 298 299 298 300 300 299 299 295 294 293 292 291 294 294 297 300 303 304 304 304 305 305 306 308 307 306 306 306 306 306 308
299 301 301 302 301 299 298 297 297 298 299 294 293 293 293 292 291 292 291 290 291 293 294 295 294 295 296 300 302 306 308 307 306 305 305 304 303 304
295 295 301 298 297 298 298 299 298 295 295 294 289 291 290 292 292 291 289 286 286 291 291 291 293 292 294 296 301 303 305 305 305 305 304 304 303 302
293 294 297 296 296 295 296 297 297 298 299 295 292 290 289 291 291 287 286 286 286 290 290 288 291 291 296 300 303 303 303 304 303 303 303 303 302 300
293 297 296 294 294 293 293 291 291 292 293 293 290 290 290 291 288 288 288 287 288 290 291 285 290 292 294 294 299 302 303 303 303 303 303 302 300 300
289 292 293 293 293 293 290 290 288 288 294 295 293 294 293 293 292 290 287 285 284 286 289 289 290 289 292 293 299 302 301 302 303 303 303 302 301 300
287 289 294 292 292 292 288 287 285 286 287 286 287 289 290 289 293 291 289 285 285 284 290 286 287 289 285 290 295 297 299 300 301 302 302 302 301 305
286 287 289 292 291 291 291 288 287 287 286 284 285 286 287 288 290 291 291 289 286 286 290 290 287 287 287 288 292 294 295 298 301 303 303 302 301 303
285 286 288 290 290 290 289 290 289 287 284 283 282 282 283 285 288 290 291 291 291 290 291 291 287 287 287 286 287 293 295 298 301 306 305 305 303 302
287 291 291 290 289 287 289 289 286 283 282 280 280 281 283 286 288 289 290 291 293 293 295 294 292 292 290 289 289 291 293 297 300 303 306 305 307 309
287 287 289 288 288 286 285 284 283 282 281 280 280 281 283 284 285 286 287 289 289 290 294 295 295 294 292 293 293 292 295 295 301 302 303 305 309 307
285 283 284 283 282 281 281 281 281 281 280 279 279 280 282 282 283 285 287 288 286 287 288 292 294 295 296 296 294 296 296 296 298 299 300 304 305 301
284 281 282 282 280 279 279 278 279 279 279 279 279 280 281 280 281 284 286 286 285 287 287 289 290 291 293 296 296 293 294 293 294 295 301 302 301 298
282 283 282 281 280 279 278 277 276 277 278 278 279 280 280 280 281 282 283 284 284 286 287 289 288 288 286 286 295 295 291 292 292 294 299 298 297 295
281 282 281 280 280 279 278 277 277 277 277 278 279 280 279 279 280 281 282 282 283 285 286 288 287 287 285 287 291 296 292 291 291 291 293 298 298 297
281 281 281 280 279 278 277 277 276 276 277 278 279 279 279 279 280 281 281 282 283 284 284 285 287 288 293 297 293 291 292 294 294 292 293 295 300 297
280 280 279 278 277 277 276 276 275 276 276 278 278 279 279 279 279 280 280 280 281 283 284 286 289 290 292 294 291 290 290 291 295 295 295 295 297 296
279 279 278 277 277 277 276 275 276 276 276 278 278 278 278 278 280 279 279 280 281 282 283 284 286 289 288 290 291 290 290 289 290 291 292 294 295 295
Wind_Speed
5 4 2 2 2 2 2 3 3 4 8 3 3 2 5 7 11 9 9 18 21 20 20 20 20 20 21 22 22 21 21 20 19 20 20 19 20 21
4 6 4 3 4 4 4 3 3 3 4 4 3 3 4 7 10 9 8 20 14 19 22 21 21 23 23 23 21 19 20 19 19 19 21 21 21 21
5 5 6 5 3 4 3 3 3 3 4 7 3 7 5 7 7 5 10 7 8 15 21 20 21 21 22 22 21 20 21 20 19 18 18 19 20 21
6 6 5 4 5 5 4 5 4 5 4 9 6 3 4 6 7 12 7 8 8 14 21 22 21 21 20 20 20 23 22 18 17 18 18 19 19 19
5 6 5 6 5 4 5 5 5 5 5 4 7 4 4 3 10 8 9 10 8 19 22 20 19 21 20 26 23 23 22 17 15 14 14 16 17 18
6 5 6 5 5 6 5 7 7 6 6 5 6 7 3 4 4 9 14 9 13 12 16 14 17 22 24 24 23 24 19 14 14 14 14 14 13 12
6 5 4 10 13 10 6 7 6 6 5 5 5 6 6 8 10 7 10 14 14 10 7 10 12 11 12 16 17 19 17 16 15 15 14 12 10 10
5 6 4 10 11 14 15 14 10 7 7 5 4 9 10 9 7 9 10 12 10 3 14 15 11 11 10 8 17 19 20 15 14 15 13 10 10 12
5 5 6 5 8 7 11 12 11 14 12 9 10 9 9 10 8 11 11 11 11 13 14 15 10 9 9 11 19 19 21 16 14 10 9 10 11 11
6 5 5 6 5 8 6 6 7 8 8 8 6 7 6 8 5 9 12 13 11 9 8 7 5 11 13 11 19 18 16 14 14 12 13 13 12 14
5 6 6 6 11 10 5 6 7 9 12 17 17 14 14 12 13 8 9 11 11 10 5 4 6 13 9 8 6 13 20 15 15 16 15 15 16 15
6 6 13 9 12 12 7 7 11 12 13 14 13 11 10 9 16 8 8 9 9 7 2 6 6 6 9 4 7 9 9 16 19 18 16 15 16 7
4 5 6 13 13 14 13 10 11 11 14 10 10 9 10 10 9 10 10 8 9 8 12 6 5 7 5 9 9 9 10 10 11 12 12 13 16 12
4 4 6 16 16 16 13 17 18 14 8 9 9 10 11 12 12 12 13 12 10 13 15 11 6 7 8 11 10 7 11 11 10 10 8 10 15 15
4 9 14 14 16 12 18 18 15 10 10 9 10 10 10 11 15 13 13 14 11 11 8 12 9 11 9 11 12 13 10 8 12 9 9 9 9 8
9 8 10 11 14 12 11 11 9 10 10 9 10 10 10 11 12 12 12 12 12 9 9 10 10 10 11 11 10 12 10 7 10 10 9 9 5 5
6 5 7 7 10 9 9 9 9 9 10 10 8 11 11 13 12 13 11 12 11 13 16 11 11 11 11 13 7 5 9 10 8 10 9 6 4 7
5 5 6 7 9 10 10 10 10 13 10 9 9 11 12 13 13 13 12 11 12 13 13 13 14 13 9 1 3 4 6 7 10 11 8 3 4 8
5 6 6 7 8 8 8 8 10 9 11 9 10 12 12 12 16 13 14 13 13 13 13 11 11 9 11 11 2 14 8 7 9 8 5 6 4 4
4 5 6 7 8 8 8 8 8 9 9 9 11 11 12 11 13 14 14 15 15 13 13 13 12 12 10 7 7 5 11 8 8 9 4 4 2 1
4 5 5 6 7 7 8 8 8 8 10 10 11 10 11 11 12 14 14 22 19 14 15 15 14 19 11 8 5 6 7 14 13 10 6 3 2 3
4 4 4 4 5 5 6 7 7 8 9 9 11 12 11 11 12 14 13 14 14 14 13 13 14 12 9 6 6 7 7 7 10 18 24 13 2 4
4 4 4 4 4 6 6 7 8 8 8 10 11 11 12 12 12 11 12 12 13 14 15 15 13 12 10 10 5 5 9 9 7 10 15 26 28 29
Wind_Direction
38 27 33 333 343 303 270 242 225 309 318 326 314 300 317 321 315 318 310 314 320 321 324 325 324 323 321 314 307 302 298 293 290 291 288 285 284 281
16 14 4 348 338 329 299 283 262 272 290 299 295 281 285 301 305 310 301 316 321 321 321 315 315 314 311 306 303 305 308 296 294 288 282 281 278 275
4 357 343 343 344 339 330 326 337 294 297 302 274 301 297 291 301 300 311 290 301 299 305 301 307 305 303 304 303 305 307 298 295 291 284 284 279 272
352 354 342 357 8 359 349 341 320 308 318 301 303 279 271 309 331 314 300 298 289 293 301 302 302 298 297 299 298 304 293 287 288 287 283 282 276 272
352 346 1 29 11 352 337 327 306 327 315 277 288 298 296 333 321 314 316 310 303 310 302 299 295 291 291 299 294 295 291 281 279 277 277 278 277 272
9 22 49 36 13 346 334 320 322 316 297 292 300 308 306 304 300 325 328 329 321 313 304 306 312 299 298 297 297 293 287 277 281 277 274 275 270 270
13 10 52 22 10 358 343 331 322 310 315 324 316 320 316 325 336 325 316 319 323 296 320 331 307 305 299 299 295 294 289 286 281 281 277 274 265 270
12 2 5 21 4 357 356 351 346 337 332 327 315 327 323 325 318 321 322 327 328 314 324 310 306 305 302 293 289 284 284 283 286 285 272 268 271 269
7 3 6 7 1 342 339 349 345 343 351 337 330 325 315 323 322 324 323 311 299 306 312 297 317 299 306 302 299 299 299 292 296 296 270 267 275 267
359 343 326 331 336 343 335 346 338 332 343 340 326 303 300 323 323 319 310 303 297 298 317 284 320 310 315 298 292 295 299 297 300 298 295 292 285 271
341 344 348 345 341 355 2 358 345 347 344 344 335 326 319 321 329 323 325 327 326 325 325 309 326 313 305 300 312 336 310 304 304 293 289 286 283 279
348 355 11 27 25 25 31 16 7 349 344 342 340 335 332 318 332 331 318 314 316 321 15 325 322 349 319 289 318 307 317 306 297 284 284 286 289 285
24 11 9 25 28 26 27 23 5 345 344 340 336 339 342 335 336 330 322 309 300 277 286 314 303 308 249 302 309 306 296 300 309 301 286 281 276 264
22 347 18 27 22 19 21 12 2 358 350 347 345 346 342 335 331 330 322 310 288 276 285 280 267 270 275 288 286 305 309 302 288 289 292 288 280 274
31 39 29 23 19 16 11 9 3 3 357 353 347 340 330 323 324 325 324 312 310 295 302 295 275 273 260 264 274 287 303 307 297 285 307 294 290 290
32 37 28 26 29 18 12 6 4 4 359 348 342 333 327 336 335 334 328 331 329 329 318 305 294 288 284 267 266 281 289 290 301 302 296 292 301 336
39 29 25 16 17 12 7 5 1 360 357 349 345 344 342 344 338 334 332 335 335 331 332 334 331 311 283 277 281 282 304 306 309 310 307 301 33 360
41 34 25 23 18 10 5 359 360 356 350 345 348 348 343 345 336 334 338 342 336 335 331 331 334 339 344 242 38 331 335 321 322 317 315 310 40 354
44 36 32 22 13 8 3 358 351 346 337 344 348 349 346 342 343 338 340 340 339 334 331 331 335 345 337 331 254 62 1 338 329 326 330 33 14 6
31 40 32 23 11 4 360 355 346 344 347 347 350 348 348 338 343 343 341 338 335 333 332 339 342 341 329 309 312 351 24 344 345 335 315 311 132 310
23 42 32 23 12 1 356 351 345 343 343 343 349 346 347 339 338 341 336 339 337 337 337 337 330 318 304 289 314 334 353 351 354 357 310 258 356 39
35 48 25 14 358 348 346 344 342 348 350 348 345 344 345 346 338 337 336 336 339 334 332 325 328 335 340 334 347 343 355 355 4 23 37 39 310 106
45 51 27 10 355 353 353 349 349 346 347 344 344 339 341 342 340 331 330 333 335 334 339 335 336 342 340 340 333 357 4 9 359 32 46 47 60 71